Location: New York
(40.7140°N, 74.0060°W)
Time: 11:13:47
(UTC-04:00)

ISS - Visible Passes

Search period start: 25 October 2014 00:00
Search period end: 03 November 2014 23:00
Orbit: 412 x 416 km, 51.6° (Epoch: 25 October)

Date Brightness Start Highest point End Pass type
(mag) Time Alt. Az. Time Alt. Az. Time Alt. Az.
25 Oct -3.2 18:51:21 10° NW 18:54:40 60° NNE 18:57:21 15° ESE visible
25 Oct -0.2 20:29:00 10° W 20:30:14 14° WSW 20:30:14 14° WSW visible
26 Oct -1.3 19:39:06 10° WNW 19:41:58 27° SW 19:43:41 17° S visible
27 Oct -2.3 18:49:35 10° WNW 18:52:49 49° SW 18:56:02 10° SE visible
29 Oct -0.3 18:48:17 10° W 18:50:36 18° SW 18:52:55 10° S visible
